sat.trackr.live / text

‹ back to catalog

GSAT0206 (GALILEO 10)

NORAD 40890 · 2015-045B

PAYLOAD ACTIVE UNKNOWN

§ Identity

Operator
Country
ESA
Launch date
2015-09-11
Launch site
FRGUI
Launch vehicle
Mass (kg)
RCS (m²)
8.88

Purposes: earth_obs, nav

External: N2YO · Heavens-Above · Gunter

§ Orbital elements

Epoch: 2026-05-24T09:46:33.752640Z

Period
844.70 min
Inclination
54.9514°
Eccentricity
0.0001727
Mean motion
1.70474019 rev/d
Perigee alt
23,217.1 km
Apogee alt
23,227.3 km
Semi-major
29,600.3 km
B*
0.0000e+0
RAAN
222.2612°
Arg perigee
22.9304°
Mean anomaly
337.1304°
Rev number
6,663

§ Raw data

GSAT0206 (GALILEO 10)1 40890U 15045B   26144.40733510 -.00000013  00000+0  00000+0 0  99992 40890  54.9514 222.2612 0001727  22.9304 337.1304  1.70474019 66630

JSON: /api/v1/satellites/40890 · /tle

For live sub-satellite position, see the globe view (requires WebGL).

§ Visibility from observer

Set your observer location to see the next 7 days of passes ≥ 10°. The values pass through the URL so the page stays shareable.

No JS? Fill the form by hand. The geolocation button needs JavaScript.